ARIANE 1 DEB *

Satellite information

Favourite Embed

Satellite Type and Status

DEBRISIN ORBIT

Key statistics

Satellite ARIANE 1 DEB * at a glance.

Uptime

14440

Days in orbit

Revolutions

≈ 14.5

Per day

Orbit

SSO

Sun Synchronous Orbit

Inclination

98.0

Latest

Satellite identification and parameters

Extended collection of information and parameters for ARIANE 1 DEB *.

Object identification

Identified? True

Debris? True

Object name: ARIANE 1 DEB *

International designator: 1986-019RY

Object number (NORAD): 18290

Object ID (CCSDS): 18290

Country: FRANCE (FR)

Current information (Y/N): Y

RCS size: SMALL

Orbital parameters

Period: 99.575 minutes

Inclination: 97.9611 deg

SMA: 7116.396 km

Apoapsis: 802.043 km

Periapsis: 674.479 km

RAAN: 167.9194 deg

Eccentricy: 0.0089627

Argument of periapsis: 219.9024 deg

Mean anomaly: 139.5559 deg

Mean motion: 14.46147437 rev/day

Mean motion (dot): 0.00000599 rev/day2

B* drag term: 0.00017110212 1/REarth

Two-line elements (TLE)

Creation date: Sept. 4, 2025, 10:13 a.m.

Reference frame: TEME

Reference center: EARTH

Epoch: Sept. 4, 2025, 6:09 a.m. UTC

TLE line 0: 0 ARIANE 1 DEB *

TLE line 1: 1 18290U 86019RY 25247.25671050 .00000599 00000-0 17110-3 0 9996

TLE line 2: 2 18290 97.9611 167.9194 0089627 219.9024 139.5559 14.46147437105599

Live tracking on map

Real-time ground track for satellite ARIANE 1 DEB *.

In-orbit conjunctions

A list of the most updated potential collisions computed for object ARIANE 1 DEB *.

Target Orbit TCA Probability of collision Miss distance Type
FENGYUN 1C DEB SSO 2025-03-28 14:53:23 0.0002793175 109.0 (m) DEBRIS
COSMOS 2251 DEB LEO 2025-01-20 00:51:07 0.0003692861 55.0 (m) DEBRIS
SL-8 R/B LEO 2024-05-30 00:10:15 0.000466663 335.0 (m) ROCKET BODY

Associated space launch

SPOT 1 is a French Earth observation satellite. Viking is Sweden's first satellite.

ARIANE 1 DEB * was lifted into orbit during the mission ‘Ariane 1 | SPOT 1 & Viking’, on board a Ariane 1 space rocket.

The launch took place on Feb. 22, 1986, 1:44 a.m. from Ariane Launch Area 1 (ELV).

For more information about the launch, click the button.

Launch to space Ariane 1 | SPOT 1 & Viking
Ariane 1 | SPOT 1 & Viking

Agency: N/A

Status: Launch Successful

Launch date: Feb. 22, 1986, 1:44 a.m. UTC

Rocket: Ariane 1

Launch pad: Ariane Launch Area 1 (ELV)

Location: Guiana Space Centre, French Guiana

...

Latest news about this satellite

There are no fresh news available about this satellite. Check back as we update our databases every day.


Newsletter sign-up

Weekly statistics, charts and insights to help you stay on top of the space industry.